Simultaneous Nadir Overpasses (SNOs) Predictions

Prediction of SNOs between GOES-17 and LANDSAT-8 Satellite Orbit:

Table of predicted SNOs for the next 14.0 days since TLE Epoch: 6/3/2023
Index Date Time (GOES-17) GOES-17 Lat,Lon LANDSAT-8 Lat,Lon Distance(km) Time Diff (sec)
1 06/04/2023 05:15:10 0.00,-104.70 -0.14,-105.52 92.41 80
2 06/06/2023 05:00:20 0.01,-104.69 0.45,-102.56 242.35 80
3 06/06/2023 17:21:35 -0.01,-104.72 0.65,-107.72 340.64 80
4 06/08/2023 17:09:27 -0.01,-104.72 -0.02,-104.77 5.99 80
5 06/10/2023 16:59:57 -0.01,-104.71 -0.64,-101.81 329.93 80
6 06/11/2023 05:21:20 0.01,-104.68 -0.50,-107.00 263.83 80
7 06/13/2023 05:06:30 0.01,-104.68 0.13,-104.04 72.11 80
8 06/15/2023 04:54:20 0.02,-104.68 0.77,-101.09 408.05 80
9 06/15/2023 17:15:36 -0.02,-104.71 0.32,-106.25 175.31 80
